GW5985 Weather Reports


Display with metric or nautical units.
time (UTC)temp
F
wind
direction
speed
MPH
gust
MPH
rain 1hr
in
rain 24hr
in
rain mn
in
humidity
%
barometer
mb
20260507164001 94 141 0.0 2.0 0.00 0.00 0.00 63 1018.5
20260507163459 94 82 2.0 2.0 0.00 0.00 0.00 64 1018.2
20260507162956 91 127 0.0 2.0 0.00 0.00 0.00 67 1018.4
20260507162451 93 330 2.0 5.0 0.00 0.00 0.00 67 1018.5
20260507161948 93 25 1.0 3.0 0.00 0.00 0.00 66 1018.7
20260507161444 91 122 1.0 3.0 0.00 0.00 0.00 68 1018.6
20260507160942 91 356 3.0 3.0 0.00 0.00 0.00 68 1019.0
20260507160437 89 105 2.0 3.0 0.00 0.00 0.00 71 1018.9
20260507155933 89 90 2.0 3.0 0.00 0.00 0.00 73 1018.8
20260507155430 87 25 1.0 2.0 0.00 0.00 0.00 75 1018.8
20260507154927 87 124 0.0 2.0 0.00 0.00 0.00 74 1018.8
20260507154423 86 133 0.0 1.0 0.00 0.00 0.00 75 1018.7
20260507153921 87 141 1.0 5.0 0.00 0.00 0.00 75 1018.9
20260507153417 87 103 2.0 3.0 0.00 0.00 0.00 73 1018.9
20260507152914 88 130 0.0 1.0 0.00 0.00 0.00 74 1018.9
20260507152410 88 140 1.0 5.0 0.00 0.00 0.00 75 1019.0
20260507151906 89 137 0.0 2.0 0.00 0.00 0.00 73 1019.0
20260507151402 88 149 2.0 2.0 0.00 0.00 0.00 71 1019.0
20260507150859 90 133 1.0 3.0 0.00 0.00 0.00 69 1019.0
20260507150356 88 140 0.0 3.0 0.00 0.00 0.00 72 1019.0
20260507145852 91 133 2.0 7.0 0.00 0.00 0.00 71 1019.1
20260507145349 91 150 2.0 5.0 0.00 0.00 0.00 69 1019.0
20260507144846 89 96 1.0 3.0 0.00 0.00 0.00 71 1019.4
20260507144343 88 129 0.0 3.0 0.00 0.00 0.00 74 1019.2
20260507143840 89 150 0.0 1.0 0.00 0.00 0.00 70 1019.3
20260507143337 87 126 1.0 2.0 0.00 0.00 0.00 73 1019.4
20260507142833 87 123 0.0 0.0 0.00 0.00 0.00 74 1019.0
20260507142329 89 125 0.0 1.0 0.00 0.00 0.00 70 1019.3
20260507141826 90 170 2.0 3.0 0.00 0.00 0.00 68 1019.2
20260507141323 88 136 0.0 2.0 0.00 0.00 0.00 69 1019.1
20260507140819 88 175 2.0 2.0 0.00 0.00 0.00 70 1019.3
20260507140316 89 124 0.0 1.0 0.00 0.00 0.00 68 1019.2
20260507135814 88 111 1.0 2.0 0.00 0.00 0.00 70 1019.0
20260507135311 89 122 2.0 3.0 0.00 0.00 0.00 69 1019.2
20260507134808 90 133 1.0 3.0 0.00 0.00 0.00 66 1019.2
20260507134304 89 124 1.0 2.0 0.00 0.00 0.00 69 1019.2
20260507133800 88 118 3.0 7.0 0.00 0.00 0.00 71 1018.9
20260507133256 88 114 0.0 3.0 0.00 0.00 0.00 69 1018.9
20260507132754 91 118 1.0 1.0 0.00 0.00 0.00 65 1019.1
20260507132250 90 130 1.0 2.0 0.00 0.00 0.00 67 1019.1
20260507131748 89 143 2.0 2.0 0.00 0.00 0.00 69 1018.9
20260507131244 87 124 1.0 5.0 0.00 0.00 0.00 71 1018.9
20260507130741 88 142 2.0 2.0 0.00 0.00 0.00 69 1019.1
20260507130239 88 130 3.0 3.0 0.00 0.00 0.00 70 1019.1
20260507125737 87 129 0.0 1.0 0.00 0.00 0.00 72 1019.1
20260507125235 85 144 1.0 2.0 0.00 0.00 0.00 77 1019.0
20260507124731 84 136 0.0 3.0 0.00 0.00 0.00 78 1018.9
20260507124228 85 132 1.0 2.0 0.00 0.00 0.00 78 1019.1
20260507123727 85 148 1.0 3.0 0.00 0.00 0.00 78 1018.8
20260507123224 88 142 4.0 6.0 0.00 0.00 0.00 71 1018.9
20260507122719 88 125 0.0 1.0 0.00 0.00 0.00 70 1018.8
20260507122215 86 127 2.0 2.0 0.00 0.00 0.00 73 1018.7
20260507121711 86 121 1.0 3.0 0.00 0.00 0.00 73 1018.5
20260507121207 87 122 0.0 1.0 0.00 0.00 0.00 69 1018.5
20260507120703 87 124 0.0 0.0 0.00 0.00 0.00 73 1018.4
20260507120200 85 124 0.0 0.0 0.00 0.00 0.00 78 1018.3
20260507115656 83 132 0.0 0.0 0.00 0.00 0.00 80 1018.2
20260507115152 83 124 0.0 0.0 0.00 0.00 0.00 80 1018.4
20260507114648 82 123 0.0 0.0 0.00 0.00 0.00 80 1018.2
20260507114145 81 128 0.0 0.0 0.00 0.00 0.00 81 1018.1
20260507113643 80 133 0.0 1.0 0.00 0.00 0.00 85 1018.1
20260507113139 79 128 0.0 1.0 0.00 0.00 0.00 85 1018.3
20260507112637 77 126 0.0 1.0 0.00 0.00 0.00 88 1018.1
20260507112134 76 121 0.0 0.0 0.00 0.00 0.00 91 1018.2
20260507111631 75 124 0.0 0.0 0.00 0.00 0.00 92 1018.2
20260507111128 75 129 0.0 0.0 0.00 0.00 0.00 93 1018.1
20260507110624 74 110 1.0 2.0 0.00 0.00 0.00 94 1018.0
20260507110121 74 130 0.0 0.0 0.00 0.00 0.00 93 1018.1
20260507105617 74 144 0.0 0.0 0.00 0.00 0.00 94 1018.0
20260507105113 73 128 0.0 0.0 0.00 0.00 0.00 96 1017.8
20260507104611 72 130 0.0 0.0 0.00 0.00 0.00 97 1018.0
20260507104107 73 180 2.0 3.0 0.00 0.00 0.00 97 1017.9
20260507103603 72 140 0.0 0.0 0.00 0.00 0.00 98 1018.0
20260507103100 72 124 0.0 0.0 0.00 0.00 0.00 98 1017.6
20260507102557 72 115 0.0 0.0 0.00 0.00 0.00 97 1017.8
20260507102053 72 125 0.0 0.0 0.00 0.00 0.00 97 1017.5
20260507101548 72 135 0.0 0.0 0.00 0.00 0.00 97 1017.7
20260507101045 72 119 0.0 0.0 0.00 0.00 0.00 96 1017.5
20260507100542 72 104 0.0 0.0 0.00 0.00 0.00 96 1017.6
20260507100041 72 100 0.0 1.0 0.00 0.00 0.00 98 1017.7
20260507095538 72 118 0.0 0.0 0.00 0.00 0.00 98 1017.6
20260507095035 72 120 0.0 0.0 0.00 0.00 0.00 97 1017.7
20260507094531 73 121 0.0 0.0 0.00 0.00 0.00 97 1017.6
20260507094028 73 126 0.0 0.0 0.00 0.00 0.00 96 1017.4
20260507093525 73 126 0.0 0.0 0.00 0.00 0.00 95 1017.4
20260507093024 73 127 0.0 0.0 0.00 0.00 0.00 95 1017.4
20260507092520 74 112 0.0 0.0 0.00 0.00 0.00 92 1017.4
20260507092017 75 136 1.0 2.0 0.00 0.00 0.00 90 1017.3
20260507091514 75 131 1.0 3.0 0.00 0.00 0.00 90 1017.4
20260507091010 74 100 3.0 3.0 0.00 0.00 0.00 92 1017.4
20260507090505 73 151 3.0 3.0 0.00 0.00 0.00 96 1017.3
20260507090002 73 146 1.0 2.0 0.00 0.00 0.00 99 1017.4
20260507085459 73 140 0.0 0.0 0.00 0.00 0.00 99 1017.5
20260507084956 73 124 0.0 0.0 0.00 0.00 0.00 99 1017.3
20260507084453 73 120 0.0 0.0 0.00 0.00 0.00 99 1017.6
20260507083950 73 119 0.0 0.0 0.00 0.00 0.00 99 1017.5
20260507083446 73 132 0.0 0.0 0.00 0.00 0.00 99 1017.7
20260507082943 73 131 0.0 0.0 0.00 0.00 0.00 99 1017.6
20260507082439 73 128 0.0 0.0 0.00 0.00 0.00 99 1017.3
20260507081935 73 128 0.0 0.0 0.00 0.00 0.00 99 1017.4
20260507081432 73 125 0.0 0.0 0.00 0.00 0.00 99 1017.7
20260507080929 74 119 0.0 0.0 0.00 0.00 0.00 99 1017.7
20260507080425 73 119 0.0 0.0 0.00 0.00 0.00 99 1017.6
20260507075920 73 119 0.0 0.0 0.00 0.00 0.00 99 1017.6
20260507075417 73 123 0.0 0.0 0.00 0.00 0.00 99 1017.5
20260507074914 73 123 0.0 0.0 0.00 0.00 0.00 99 1017.5
20260507074410 73 120 0.0 0.0 0.00 0.00 0.00 99 1017.7
20260507073908 74 119 0.0 0.0 0.00 0.00 0.00 99 1017.7
20260507073404 74 109 0.0 0.0 0.00 0.00 0.00 99 1017.6
20260507072901 74 129 0.0 0.0 0.00 0.00 0.00 99 1017.8
20260507072359 74 115 0.0 0.0 0.00 0.00 0.00 99 1017.8
20260507071856 74 116 0.0 0.0 0.00 0.00 0.00 99 1017.6
20260507071353 74 123 0.0 0.0 0.00 0.00 0.00 99 1017.8
20260507070849 74 127 0.0 0.0 0.00 0.00 0.00 99 1017.8
20260507070347 74 130 0.0 0.0 0.00 0.00 0.00 99 1017.9
20260507065843 74 134 0.0 0.0 0.00 0.00 0.00 99 1017.8
20260507065340 74 131 0.0 0.0 0.00 0.00 0.00 99 1017.6
20260507064837 74 120 0.0 0.0 0.00 0.00 0.00 99 1017.8
20260507064336 74 130 0.0 0.0 0.00 0.00 0.00 99 1017.9
20260507063833 75 131 0.0 0.0 0.00 0.00 0.00 99 1018.3
20260507063330 75 120 0.0 0.0 0.00 0.00 0.00 99 1018.2
20260507062826 75 120 0.0 0.0 0.00 0.00 0.00 99 1018.1
20260507062323 75 118 0.0 0.0 0.00 0.00 0.00 99 1018.3
20260507061822 75 107 1.0 1.0 0.00 0.00 0.00 99 1018.5
20260507061319 75 125 0.0 1.0 0.00 0.00 0.00 99 1018.2
20260507060818 76 190 3.0 3.0 0.00 0.00 0.00 99 1018.3
20260507060314 76 129 0.0 0.0 0.00 0.00 0.00 99 1018.4
20260507055811 76 130 0.0 1.0 0.00 0.00 0.00 99 1018.4
20260507055306 76 119 0.0 0.0 0.00 0.00 0.00 99 1018.3
20260507054802 77 122 0.0 0.0 0.00 0.00 0.00 99 1018.5
20260507054259 77 129 0.0 0.0 0.00 0.00 0.00 99 1018.7
20260507053756 77 128 0.0 0.0 0.00 0.00 0.00 99 1018.8
20260507053254 77 120 0.0 0.0 0.00 0.00 0.00 99 1018.9
20260507052753 77 114 0.0 0.0 0.00 0.00 0.00 99 1018.9
20260507052249 77 130 0.0 0.0 0.00 0.00 0.00 99 1019.0
20260507051747 77 134 0.0 0.0 0.00 0.00 0.00 99 1019.2
20260507051243 77 118 0.0 0.0 0.00 0.00 0.00 99 1019.0
20260507050740 77 122 0.0 0.0 0.00 0.00 0.00 99 1019.3
20260507050237 77 118 0.0 0.0 0.00 0.00 0.00 99 1019.3
20260507045734 77 126 0.0 0.0 0.00 0.00 0.00 99 1019.5
20260507045230 78 122 0.0 0.0 0.00 0.00 0.00 98 1019.4
20260507044727 78 122 0.0 0.0 0.00 0.00 0.00 98 1019.7
20260507044224 78 122 0.0 0.0 0.00 0.00 0.00 97 1019.5
20260507043720 78 122 0.0 0.0 0.00 0.00 0.00 98 1019.5
20260507043217 78 122 0.0 0.0 0.00 0.00 0.00 97 1019.8
20260507042714 78 121 0.0 0.0 0.00 0.00 0.00 97 1019.7
20260507042208 78 126 0.0 0.0 0.00 0.00 0.00 97 1019.6
20260507041706 78 121 0.0 0.0 0.00 0.00 0.00 97 1019.8
20260507041202 78 121 0.0 0.0 0.00 0.00 0.00 97 1020.0
20260507040659 78 119 0.0 0.0 0.00 0.00 0.00 97 1019.8
20260507040155 78 125 0.0 0.0 0.00 0.00 0.00 97 1019.7
20260507035651 78 125 0.0 0.0 0.00 0.00 0.00 97 1020.0
20260507035148 78 125 0.0 0.0 0.00 0.00 0.00 97 1019.9
20260507034644 78 128 0.0 0.0 0.00 0.00 0.00 96 1020.1
20260507034142 78 128 0.0 0.0 0.00 0.00 0.00 97 1020.3
20260507033640 78 123 0.0 0.0 0.00 0.00 0.00 97 1020.0
20260507033137 78 123 0.0 0.0 0.00 0.00 0.00 97 1020.2
20260507032635 78 123 0.0 0.0 0.00 0.00 0.00 97 1020.2
20260507032130 78 123 0.0 0.0 0.00 0.00 0.00 98 1020.1
20260507031627 78 121 0.0 0.0 0.00 0.00 0.00 98 1020.3
20260507031124 77 122 0.0 0.0 0.00 0.00 0.00 98 1020.2
20260507030621 77 122 0.0 0.0 0.00 0.00 0.00 98 1020.3
20260507030119 77 122 0.0 0.0 0.00 0.00 0.00 98 1020.3
20260507025616 78 128 0.0 0.0 0.00 0.00 0.00 97 1020.2
20260507025112 78 119 0.0 0.0 0.00 0.00 0.00 97 1020.5
20260507024611 78 120 0.0 0.0 0.00 0.00 0.00 96 1020.2
20260507024108 78 119 0.0 0.0 0.00 0.00 0.00 96 1020.3
20260507023603 78 119 0.0 0.0 0.00 0.00 0.00 96 1020.4
20260507023101 79 119 0.0 0.0 0.00 0.00 0.00 95 1020.1
20260507022557 79 118 0.0 0.0 0.00 0.00 0.00 95 1020.2
20260507022052 79 127 0.0 0.0 0.00 0.00 0.00 95 1020.0
20260507021549 79 122 0.0 0.0 0.00 0.00 0.00 95 1020.1
20260507021045 79 121 0.0 0.0 0.00 0.00 0.00 94 1020.1
20260507020543 79 116 0.0 0.0 0.00 0.00 0.00 94 1020.0
20260507020039 79 118 0.0 0.0 0.00 0.00 0.00 94 1019.9
20260507015538 80 107 1.0 1.0 0.00 0.00 0.00 93 1019.8
20260507015035 80 119 0.0 1.0 0.00 0.00 0.00 92 1019.8
20260507014531 80 129 1.0 2.0 0.00 0.00 0.00 92 1019.9
20260507014027 80 129 0.0 0.0 0.00 0.00 0.00 92 1019.8
20260507013524 80 122 0.0 0.0 0.00 0.00 0.00 93 1019.7
20260507013021 80 122 0.0 0.0 0.00 0.00 0.00 92 1019.9
20260507012518 80 122 0.0 0.0 0.00 0.00 0.00 92 1019.8
20260507012015 80 126 0.0 1.0 0.00 0.00 0.00 92 1019.8
20260507011512 80 135 1.0 2.0 0.00 0.00 0.00 92 1019.5
20260507011008 80 139 1.0 1.0 0.00 0.00 0.00 92 1019.5
20260507010502 80 130 0.0 1.0 0.00 0.00 0.00 91 1019.4
20260507005959 80 121 0.0 0.0 0.00 0.00 0.00 91 1019.6
20260507005457 80 122 0.0 0.0 0.00 0.00 0.00 91 1019.6
20260507004953 80 119 1.0 3.0 0.00 0.00 0.00 91 1019.4
20260507004450 80 115 1.0 2.0 0.00 0.00 0.00 90 1019.3
20260507003948 80 122 0.0 2.0 0.00 0.00 0.00 90 1019.1
20260507003442 80 91 1.0 2.0 0.00 0.00 0.00 89 1019.4
20260507002938 80 103 1.0 3.0 0.00 0.00 0.00 89 1019.6
20260507002434 81 99 1.0 1.0 0.00 0.00 0.00 89 1019.1
20260507001931 81 101 1.0 2.0 0.00 0.00 0.00 88 1019.4
20260507001428 81 112 0.0 1.0 0.00 0.00 0.00 88 1019.4
20260507000926 81 115 0.0 2.0 0.00 0.00 0.00 87 1019.0
20260507000421 81 125 0.0 1.0 0.00 0.00 0.00 86 1019.0
20260506235917 82 119 0.0 1.0 0.00 0.00 0.00 86 1019.3
20260506235415 82 137 0.0 2.0 0.00 0.00 0.00 85 1019.1
20260506234909 82 103 2.0 2.0 0.00 0.00 0.00 84 1019.0
20260506234408 82 117 1.0 1.0 0.00 0.00 0.00 84 1018.9
20260506233905 82 117 1.0 2.0 0.00 0.00 0.00 83 1018.9
20260506233401 82 118 0.0 1.0 0.00 0.00 0.00 83 1018.8
20260506232858 82 121 0.0 0.0 0.00 0.00 0.00 84 1019.0
20260506232354 82 119 0.0 0.0 0.00 0.00 0.00 83 1018.7
20260506231850 82 76 2.0 3.0 0.00 0.00 0.00 84 1018.7
20260506231348 82 122 0.0 0.0 0.00 0.00 0.00 85 1018.4
20260506230845 82 119 0.0 0.0 0.00 0.00 0.00 84 1018.6
20260506230342 83 127 0.0 2.0 0.00 0.00 0.00 83 1018.4
20260506225838 83 127 0.0 0.0 0.00 0.00 0.00 83 1018.3
20260506225336 83 134 0.0 3.0 0.00 0.00 0.00 83 1018.4
20260506224832 83 134 0.0 0.0 0.00 0.00 0.00 83 1018.2
20260506224330 83 131 0.0 2.0 0.00 0.00 0.00 82 1018.1
20260506223826 83 149 1.0 2.0 0.00 0.00 0.00 83 1018.2
20260506223321 83 112 0.0 3.0 0.00 0.00 0.00 82 1018.0
20260506222819 83 126 0.0 1.0 0.00 0.00 0.00 82 1017.9
20260506222314 83 114 2.0 3.0 0.00 0.00 0.00 82 1017.8
20260506221812 84 163 1.0 2.0 0.00 0.00 0.00 82 1017.8
20260506221310 84 122 0.0 1.0 0.00 0.00 0.00 81 1017.9
20260506220807 84 117 1.0 2.0 0.00 0.00 0.00 81 1017.8
20260506220302 84 53 2.0 3.0 0.00 0.00 0.00 80 1017.6
20260506215759 84 94 2.0 5.0 0.00 0.00 0.00 80 1017.8
20260506215254 85 39 2.0 3.0 0.00 0.00 0.00 79 1017.7
20260506214750 85 102 1.0 1.0 0.00 0.00 0.00 79 1017.6
20260506214248 85 130 3.0 3.0 0.00 0.00 0.00 78 1017.7
20260506213746 85 106 3.0 3.0 0.00 0.00 0.00 78 1017.6
20260506213243 85 128 0.0 1.0 0.00 0.00 0.00 78 1017.5
20260506212740 86 72 1.0 2.0 0.00 0.00 0.00 77 1017.3
20260506212236 86 109 1.0 7.0 0.00 0.00 0.00 77 1017.2
20260506211731 87 112 3.0 3.0 0.00 0.00 0.00 75 1017.2
20260506211228 87 22 3.0 5.0 0.00 0.00 0.00 74 1017.0
20260506210725 87 48 1.0 3.0 0.00 0.00 0.00 74 1017.3
20260506210222 87 112 1.0 3.0 0.00 0.00 0.00 75 1017.4
20260506205719 87 105 2.0 3.0 0.00 0.00 0.00 74 1017.3
20260506205214 87 59 4.0 6.0 0.00 0.00 0.00 73 1017.2
20260506204711 88 127 2.0 3.0 0.00 0.00 0.00 72 1017.4
20260506204209 87 116 0.0 3.0 0.00 0.00 0.00 73 1017.3
20260506203707 87 71 3.0 3.0 0.00 0.00 0.00 73 1017.2
20260506203204 87 119 1.0 2.0 0.00 0.00 0.00 72 1017.3
20260506202701 88 109 2.0 6.0 0.00 0.00 0.00 71 1017.2
20260506202157 88 92 3.0 5.0 0.00 0.00 0.00 70 1017.4
20260506201654 87 78 3.0 5.0 0.00 0.00 0.00 71 1017.2
20260506201150 88 80 4.0 5.0 0.00 0.00 0.00 71 1017.4
20260506200647 87 113 2.0 3.0 0.00 0.00 0.00 72 1017.2
20260506200144 88 84 6.0 7.0 0.00 0.00 0.00 70 1017.3
20260506195641 88 49 3.0 6.0 0.00 0.00 0.00 68 1017.3
20260506195137 87 86 0.0 3.0 0.00 0.00 0.00 71 1017.4
20260506194635 88 118 2.0 5.0 0.00 0.00 0.00 70 1017.3
20260506194131 89 47 3.0 5.0 0.00 0.00 0.00 67 1017.3
20260506193629 93 77 2.0 5.0 0.00 0.00 0.00 63 1017.3
20260506193126 91 122 1.0 5.0 0.00 0.00 0.00 65 1017.3
20260506192622 92 128 2.0 2.0 0.00 0.00 0.00 63 1017.4
20260506192118 91 321 2.0 3.0 0.00 0.00 0.00 66 1017.6
20260506191615 92 117 1.0 2.0 0.00 0.00 0.00 63 1017.4
20260506191111 91 83 0.0 5.0 0.00 0.00 0.00 63 1017.7
20260506190609 89 122 1.0 2.0 0.00 0.00 0.00 65 1017.5
20260506190105 89 121 1.0 3.0 0.00 0.00 0.00 67 1018.0
20260506185603 89 183 2.0 3.0 0.00 0.00 0.00 66 1017.6
20260506185059 91 121 1.0 3.0 0.00 0.00 0.00 64 1017.7
20260506184556 90 118 1.0 1.0 0.00 0.00 0.00 63 1017.9
20260506184053 89 129 0.0 1.0 0.00 0.00 0.00 68 1017.7
20260506183549 89 107 1.0 3.0 0.00 0.00 0.00 66 1018.0
20260506183046 89 126 1.0 6.0 0.00 0.00 0.00 64 1017.8
20260506182544 87 113 1.0 3.0 0.00 0.00 0.00 67 1017.9
20260506182041 88 116 2.0 2.0 0.00 0.00 0.00 66 1018.1
20260506181539 89 107 1.0 2.0 0.00 0.00 0.00 66 1017.9
20260506181035 88 119 1.0 1.0 0.00 0.00 0.00 65 1017.9
20260506180532 88 25 2.0 3.0 0.00 0.00 0.00 65 1018.3
20260506180028 89 154 0.0 1.0 0.00 0.00 0.00 66 1018.0
20260506175525 89 123 0.0 2.0 0.00 0.00 0.00 63 1018.3
20260506175021 91 80 4.0 6.0 0.00 0.00 0.00 62 1018.2
20260506174520 92 113 1.0 2.0 0.00 0.00 0.00 60 1018.4
20260506174015 94 116 1.0 7.0 0.00 0.00 0.00 61 1018.6
20260506173513 93 169 1.0 1.0 0.00 0.00 0.00 58 1018.5
20260506173010 89 121 0.0 2.0 0.00 0.00 0.00 62 1018.6
20260506172508 89 80 3.0 3.0 0.00 0.00 0.00 63 1018.6
20260506172004 91 84 1.0 5.0 0.00 0.00 0.00 63 1018.9
20260506171501 89 98 0.0 3.0 0.00 0.00 0.00 64 1018.7
20260506170959 89 86 2.0 7.0 0.00 0.00 0.00 64 1019.0
20260506170456 88 142 1.0 5.0 0.00 0.00 0.00 66 1018.9
20260506165954 89 33 1.0 6.0 0.00 0.00 0.00 64 1019.2
20260506165452 87 62 2.0 3.0 0.00 0.00 0.00 68 1019.2
20260506164948 87 109 3.0 3.0 0.00 0.00 0.00 67 1019.2
20260506164445 87 111 1.0 3.0 0.00 0.00 0.00 67 1019.4